When you browse on this site, cookies collect data to enhance your experience and personalize the content and advertising you see.
Visit our Privacy Policy to learn more. By continuing to use the site, you agree to this use of cookies and data.
  • In Österreich
  • Länderverzeichnis
  • Für 7 Tage
  • Wassertemperatur
  • Wetterkarte
  • News
  • Widgets
  • user-avatar
    Anmelden

    Stündliche Wetter Anan'ivka

    Heute, 22 September, Sonntag

    Zeit Temperatur Niederschläge Wind Luftdruck Luftfeuchtigkeit
    00:00 +5°C° 0 mm 3 m/S 736 mmHg 68%
    01:00 +5°C° 0 mm 3 m/S 736 mmHg 67%
    02:00 +5°C° 0 mm 4 m/S 736 mmHg 66%
    03:00 +5°C° 0 mm 4 m/S 736 mmHg 67%
    04:00 +5°C° 0 mm 4 m/S 736 mmHg 66%
    05:00 +4°C° 0 mm 4 m/S 736 mmHg 66%
    06:00 +3°C° 0 mm 5 m/S 736 mmHg 66%
    07:00 +5°C° 0 mm 6 m/S 735 mmHg 59%
    08:00 +6°C° 0 mm 8 m/S 735 mmHg 52%
    09:00 +8°C° 0 mm 9 m/S 735 mmHg 45%
    10:00 +8°C° 0.1 mm 9 m/S 735 mmHg 49%
    11:00 +8°C° 0.1 mm 9 m/S 734 mmHg 52%
    12:00 +8°C° 0.1 mm 10 m/S 734 mmHg 56%
    13:00 +9°C° 0.1 mm 10 m/S 734 mmHg 61%
    14:00 +9°C° 0.1 mm 10 m/S 733 mmHg 67%
    15:00 +11°C° 0.1 mm 10 m/S 733 mmHg 72%
    16:00 +11°C° 0.1 mm 9 m/S 733 mmHg 72%
    17:00 +12°C° 0.1 mm 8 m/S 733 mmHg 71%
    18:00 +12°C° 0.1 mm 7 m/S 733 mmHg 70%
    19:00 +12°C° 0 mm 7 m/S 733 mmHg 72%
    20:00 +11°C° 0 mm 6 m/S 733 mmHg 73%
    21:00 +11°C° 0 mm 6 m/S 733 mmHg 75%
    22:00 +11°C° 0 mm 6 m/S 733 mmHg 74%
    23:00 +11°C° 0 mm 6 m/S 733 mmHg 72%

    Morgen, 23 September, Montag

    Zeit Temperatur Niederschläge Wind Luftdruck Luftfeuchtigkeit
    00:00 +11°C° 0 mm 6 m/S 733 mmHg 71%
    01:00 +10°C° 0 mm 6 m/S 733 mmHg 73%
    02:00 +10°C° 0 mm 5 m/S 733 mmHg 75%
    03:00 +9°C° 0 mm 5 m/S 733 mmHg 77%
    04:00 +9°C° 0 mm 5 m/S 733 mmHg 78%
    05:00 +8°C° 0 mm 4 m/S 733 mmHg 79%
    06:00 +7°C° 0 mm 4 m/S 733 mmHg 80%
    07:00 +7°C° 0.1 mm 4 m/S 734 mmHg 80%
    08:00 +7°C° 0.1 mm 4 m/S 734 mmHg 79%
    09:00 +6°C° 0.1 mm 4 m/S 735 mmHg 78%
    10:00 +8°C° 0 mm 3 m/S 735 mmHg 71%
    11:00 +9°C° 0 mm 3 m/S 736 mmHg 64%
    12:00 +10°C° 0 mm 3 m/S 736 mmHg 57%
    13:00 +10°C° 0 mm 3 m/S 736 mmHg 51%
    14:00 +11°C° 0 mm 3 m/S 736 mmHg 46%
    15:00 +12°C° 0 mm 3 m/S 736 mmHg 40%
    16:00 +11°C° 0 mm 3 m/S 737 mmHg 40%
    17:00 +11°C° 0 mm 3 m/S 737 mmHg 39%
    18:00 +10°C° 0 mm 2 m/S 737 mmHg 38%
    19:00 +9°C° 0 mm 2 m/S 737 mmHg 39%
    20:00 +8°C° 0 mm 2 m/S 738 mmHg 41%
    21:00 +7°C° 0 mm 2 m/S 738 mmHg 43%
    22:00 +6°C° 0 mm 2 m/S 738 mmHg 44%
    23:00 +6°C° 0 mm 2 m/S 738 mmHg 45%

    übermorgen, 24 September, Dienstag

    Zeit Temperatur Niederschläge Wind Luftdruck Luftfeuchtigkeit
    00:00 +7°C° 0 mm 1 m/S 738 mmHg 46%
    01:00 +6°C° 0 mm 1 m/S 738 mmHg 47%
    02:00 +6°C° 0 mm 1 m/S 738 mmHg 48%
    03:00 +6°C° 0 mm 1 m/S 738 mmHg 50%
    04:00 +5°C° 0 mm 1 m/S 738 mmHg 51%
    05:00 +5°C° 0 mm 1 m/S 738 mmHg 53%
    06:00 +5°C° 0 mm 1 m/S 738 mmHg 54%
    07:00 +6°C° 0 mm 2 m/S 738 mmHg 49%
    08:00 +7°C° 0 mm 2 m/S 739 mmHg 44%
    09:00 +9°C° 0 mm 3 m/S 739 mmHg 39%
    10:00 +12°C° 0 mm 2 m/S 739 mmHg 35%
    11:00 +13°C° 0 mm 1 m/S 739 mmHg 32%
    12:00 +14°C° 0 mm 1 m/S 738 mmHg 28%
    13:00 +15°C° 0 mm 1 m/S 738 mmHg 26%
    14:00 +15°C° 0 mm 1 m/S 738 mmHg 25%
    15:00 +15°C° 0 mm 0 m/S 738 mmHg 23%
    16:00 +15°C° 0 mm 1 m/S 737 mmHg 25%
    17:00 +13°C° 0 mm 1 m/S 737 mmHg 28%
    18:00 +12°C° 0 mm 1 m/S 737 mmHg 30%
    19:00 +11°C° 0 mm 1 m/S 737 mmHg 31%
    20:00 +9°C° 0 mm 2 m/S 737 mmHg 33%
    21:00 +8°C° 0 mm 2 m/S 737 mmHg 34%
    22:00 +8°C° 0 mm 2 m/S 737 mmHg 36%
    23:00 +7°C° 0 mm 2 m/S 737 mmHg 38%

    25 September, Mittwoch

    Zeit Temperatur Niederschläge Wind Luftdruck Luftfeuchtigkeit
    00:00 +7°C° 0 mm 2 m/S 737 mmHg 39%
    01:00 +6°C° 0 mm 2 m/S 737 mmHg 43%
    02:00 +7°C° 0 mm 1 m/S 737 mmHg 46%
    03:00 +7°C° 0 mm 1 m/S 736 mmHg 50%
    04:00 +6°C° 0 mm 1 m/S 737 mmHg 53%
    05:00 +6°C° 0 mm 1 m/S 737 mmHg 57%
    06:00 +6°C° 0 mm 1 m/S 737 mmHg 60%
    07:00 +8°C° 0 mm 1 m/S 737 mmHg 56%
    08:00 +9°C° 0 mm 2 m/S 737 mmHg 53%
    09:00 +12°C° 0 mm 2 m/S 737 mmHg 50%
    10:00 +13°C° 0 mm 2 m/S 738 mmHg 43%
    11:00 +14°C° 0 mm 2 m/S 738 mmHg 36%
    12:00 +16°C° 0 mm 2 m/S 738 mmHg 30%
    13:00 +16°C° 0 mm 2 m/S 737 mmHg 28%
    14:00 +17°C° 0 mm 2 m/S 737 mmHg 26%
    15:00 +17°C° 0 mm 2 m/S 737 mmHg 25%
    16:00 +16°C° 0 mm 2 m/S 737 mmHg 27%
    17:00 +15°C° 0 mm 2 m/S 737 mmHg 29%
    18:00 +14°C° 0 mm 2 m/S 736 mmHg 32%
    19:00 +13°C° 0 mm 2 m/S 737 mmHg 34%
    20:00 +12°C° 0 mm 2 m/S 737 mmHg 35%
    21:00 +9°C° 0 mm 2 m/S 737 mmHg 37%
    22:00 +9°C° 0 mm 2 m/S 737 mmHg 39%
    23:00 +8°C° 0 mm 2 m/S 737 mmHg 41%

    26 September, Donnerstag

    Zeit Temperatur Niederschläge Wind Luftdruck Luftfeuchtigkeit
    00:00 +8°C° 0 mm 2 m/S 737 mmHg 44%
    01:00 +7°C° 0 mm 2 m/S 737 mmHg 46%
    02:00 +7°C° 0 mm 2 m/S 737 mmHg 49%
    03:00 +7°C° 0 mm 2 m/S 737 mmHg 52%
    04:00 +7°C° 0 mm 2 m/S 737 mmHg 52%
    05:00 +5°C° 0 mm 3 m/S 737 mmHg 53%
    06:00 +5°C° 0 mm 3 m/S 737 mmHg 53%
    07:00 +7°C° 0 mm 4 m/S 737 mmHg 48%
    08:00 +8°C° 0 mm 5 m/S 737 mmHg 43%
    09:00 +10°C° 0 mm 6 m/S 737 mmHg 38%
    10:00 +13°C° 0 mm 6 m/S 737 mmHg 36%
    11:00 +14°C° 0 mm 6 m/S 737 mmHg 34%
    12:00 +16°C° 0 mm 7 m/S 737 mmHg 32%
    13:00 +16°C° 0 mm 6 m/S 737 mmHg 37%
    14:00 +16°C° 0 mm 6 m/S 736 mmHg 42%
    15:00 +17°C° 0 mm 6 m/S 736 mmHg 46%
    16:00 +16°C° 0 mm 5 m/S 735 mmHg 53%
    17:00 +15°C° 0 mm 5 m/S 735 mmHg 59%
    18:00 +14°C° 0 mm 4 m/S 735 mmHg 66%
    19:00 +13°C° 0 mm 4 m/S 735 mmHg 68%
    20:00 +13°C° 0 mm 4 m/S 735 mmHg 70%
    21:00 +12°C° 0 mm 4 m/S 734 mmHg 72%
    22:00 +12°C° 0.1 mm 4 m/S 734 mmHg 75%
    23:00 +11°C° 0.1 mm 4 m/S 734 mmHg 79%

    27 September, Freitag

    Zeit Temperatur Niederschläge Wind Luftdruck Luftfeuchtigkeit
    00:00 +11°C° 0.1 mm 4 m/S 733 mmHg 83%
    01:00 +11°C° 0.2 mm 4 m/S 733 mmHg 84%
    02:00 +11°C° 0.2 mm 4 m/S 733 mmHg 85%
    03:00 +11°C° 0.2 mm 4 m/S 733 mmHg 86%
    04:00 +11°C° 0 mm 4 m/S 733 mmHg 87%
    05:00 +11°C° 0 mm 3 m/S 732 mmHg 87%
    06:00 +10°C° 0 mm 2 m/S 732 mmHg 87%
    07:00 +12°C° 0 mm 2 m/S 732 mmHg 83%
    08:00 +13°C° 0 mm 1 m/S 732 mmHg 79%
    09:00 +14°C° 0 mm 1 m/S 732 mmHg 75%
    10:00 +16°C° 0 mm 1 m/S 732 mmHg 72%
    11:00 +18°C° 0 mm 1 m/S 732 mmHg 68%
    12:00 +19°C° 0 mm 1 m/S 732 mmHg 64%
    13:00 +20°C° 0 mm 1 m/S 731 mmHg 60%
    14:00 +19°C° 0 mm 2 m/S 731 mmHg 56%
    15:00 +20°C° 0 mm 2 m/S 731 mmHg 53%
    16:00 +19°C° 0.1 mm 2 m/S 731 mmHg 55%
    17:00 +18°C° 0.1 mm 2 m/S 731 mmHg 58%
    18:00 +17°C° 0.1 mm 2 m/S 731 mmHg 61%
    19:00 +17°C° 0 mm 2 m/S 731 mmHg 62%
    20:00 +16°C° 0 mm 2 m/S 731 mmHg 64%
    21:00 +16°C° 0 mm 2 m/S 731 mmHg 66%
    22:00 +15°C° 0 mm 2 m/S 731 mmHg 68%
    23:00 +15°C° 0 mm 2 m/S 731 mmHg 71%
    Mehr zeigen